TimePST,TemperatureF,Dew PointF,Humidity,Sea Level PressureIn,VisibilityMPH,Wind Direction,Wind SpeedMPH,Gust SpeedMPH,PrecipitationIn,Events,Conditions,WindDirDegrees,DateUTC
12:28 AM,44.6,44.6,100,29.60,10.0,SE,5.8,-,N/A,Rain,Light Rain,140,2012-11-30 08:28:00
12:38 AM,44.6,44.6,100,29.59,10.0,SE,5.8,-,N/A,Rain,Light Rain,130,2012-11-30 08:38:00
12:43 AM,44.6,44.6,100,29.59,10.0,SE,5.8,-,N/A,Rain,Light Rain,130,2012-11-30 08:43:00
12:58 AM,43.7,43.7,100,29.62,10.0,SE,8.1,-,0.01,Rain,Light Rain,130,2012-11-30 08:58:00
1:53 AM,44.6,44.6,100,29.56,10.0,SE,10.4,-,N/A,Rain,Light Rain,140,2012-11-30 09:53:00
1:58 AM,43.9,43.9,100,29.58,10.0,SE,10.4,-,0.00,Rain,Light Rain,140,2012-11-30 09:58:00
2:03 AM,44.6,44.6,100,29.56,10.0,SSE,10.4,-,N/A,Rain,Light Rain,160,2012-11-30 10:03:00
2:06 AM,44.6,44.6,100,29.56,10.0,SSE,10.4,-,N/A,,Mostly Cloudy,160,2012-11-30 10:06:00
2:09 AM,44.6,44.6,100,29.56,10.0,SSE,12.7,18.4,N/A,Rain,Light Rain,160,2012-11-30 10:09:00
2:52 AM,44.6,44.6,100,29.54,10.0,SSE,11.5,-,N/A,,Overcast,150,2012-11-30 10:52:00
2:58 AM,43.9,43.9,100,29.57,10.0,SSE,10.4,-,0.00,,Overcast,150,2012-11-30 10:58:00
3:07 AM,44.6,44.6,100,29.53,10.0,SSE,10.4,-,N/A,Rain,Light Rain,150,2012-11-30 11:07:00
3:52 AM,44.6,44.6,100,29.53,10.0,SSE,9.2,-,N/A,Rain,Light Rain,150,2012-11-30 11:52:00
3:57 AM,44.6,44.6,100,29.53,10.0,SSE,9.2,-,N/A,Rain,Light Rain,160,2012-11-30 11:57:00
3:58 AM,43.7,43.7,100,29.56,10.0,SSE,8.1,-,0.02,Rain,Light Rain,160,2012-11-30 11:58:00
4:03 AM,44.6,44.6,100,29.53,10.0,SSE,9.2,-,N/A,Rain,Light Rain,160,2012-11-30 12:03:00
4:18 AM,44.6,44.6,100,29.53,10.0,SSE,6.9,-,N/A,,Overcast,150,2012-11-30 12:18:00
4:20 AM,44.6,44.6,100,29.53,10.0,SSE,6.9,-,N/A,Rain,Light Rain,160,2012-11-30 12:20:00
4:24 AM,44.6,44.6,100,29.53,10.0,SSE,6.9,-,N/A,Rain,Light Rain,150,2012-11-30 12:24:00
4:34 AM,42.8,42.8,100,29.52,10.0,South,6.9,-,N/A,Rain,Light Rain,170,2012-11-30 12:34:00
4:42 AM,42.8,42.8,100,29.53,10.0,South,4.6,-,N/A,,Overcast,180,2012-11-30 12:42:00
4:47 AM,42.8,42.8,100,29.52,10.0,SSE,4.6,-,N/A,Rain,Light Rain,160,2012-11-30 12:47:00
4:57 AM,42.8,42.8,100,29.53,10.0,SSE,5.8,-,N/A,,Overcast,160,2012-11-30 12:57:00
4:58 AM,43.3,43.3,100,29.56,10.0,SSE,5.8,-,0.01,,Overcast,160,2012-11-30 12:58:00
5:09 AM,42.8,42.8,100,29.53,10.0,SSE,4.6,-,N/A,Rain,Light Rain,160,2012-11-30 13:09:00
5:19 AM,42.8,42.8,100,29.52,10.0,South,4.6,-,N/A,Rain,Light Rain,180,2012-11-30 13:19:00
5:49 AM,44.6,44.6,100,29.53,8.0,South,5.8,-,N/A,Rain,Light Rain,180,2012-11-30 13:49:00
5:58 AM,43.9,43.9,100,29.56,6.0,SSE,8.1,-,0.02,Rain,Light Rain,150,2012-11-30 13:58:00
6:07 AM,44.6,44.6,100,29.53,9.0,SSE,6.9,-,N/A,Rain,Light Rain,160,2012-11-30 14:07:00
6:12 AM,44.6,44.6,100,29.52,10.0,SSE,6.9,-,N/A,Rain,Light Rain,150,2012-11-30 14:12:00
6:15 AM,44.6,44.6,100,29.52,10.0,SSE,8.1,-,N/A,,Overcast,150,2012-11-30 14:15:00
6:58 AM,43.3,43.3,100,29.56,10.0,SSE,8.1,-,0.00,,Overcast,150,2012-11-30 14:58:00
7:58 AM,43.3,43.3,100,29.57,10.0,SSE,9.2,-,N/A,,Overcast,160,2012-11-30 15:58:00
8:58 AM,44.6,44.6,100,29.56,10.0,SSE,8.1,-,N/A,,Overcast,160,2012-11-30 16:58:00
9:58 AM,46.0,46.0,100,29.58,10.0,South,8.1,-,0.01,,Overcast,170,2012-11-30 17:58:00
10:11 AM,46.4,46.4,100,29.55,10.0,South,8.1,-,N/A,Rain,Light Rain,170,2012-11-30 18:11:00
10:35 AM,46.4,46.4,100,29.55,10.0,South,10.4,-,N/A,Rain,Light Rain,190,2012-11-30 18:35:00
10:58 AM,46.4,46.4,100,29.59,10.0,South,8.1,-,0.00,Rain,Light Rain,190,2012-11-30 18:58:00
11:26 AM,46.4,46.4,100,29.55,10.0,South,11.5,-,N/A,,Overcast,190,2012-11-30 19:26:00
11:58 AM,48.4,48.4,100,29.56,10.0,South,12.7,-,0.01,,Mostly Cloudy,180,2012-11-30 19:58:00
12:38 PM,48.2,48.2,100,29.55,10.0,SSW,13.8,19.6,N/A,,Mostly Cloudy,200,2012-11-30 20:38:00
12:53 PM,50.0,50.0,100,29.55,10.0,SSW,13.8,-,N/A,,Scattered Clouds,200,2012-11-30 20:53:00
12:58 PM,49.3,49.3,100,29.57,10.0,SSW,15.0,-,N/A,,Scattered Clouds,200,2012-11-30 20:58:00
1:58 PM,48.9,48.9,100,29.60,10.0,SSW,16.1,23.0,N/A,,Scattered Clouds,200,2012-11-30 21:58:00
2:03 PM,48.2,48.2,100,29.58,10.0,SSW,16.1,23.0,N/A,,Mostly Cloudy,210,2012-11-30 22:03:00
2:23 PM,48.2,48.2,100,29.58,10.0,SSW,16.1,24.2,N/A,,Scattered Clouds,200,2012-11-30 22:23:00
2:58 PM,47.1,47.1,100,29.61,10.0,South,8.1,-,N/A,,Clear,180,2012-11-30 22:58:00
3:58 PM,44.6,44.6,100,29.64,10.0,SSE,8.1,-,N/A,,Clear,160,2012-11-30 23:58:00
4:58 PM,44.1,44.1,100,29.63,10.0,SSE,6.9,-,N/A,,Mostly Cloudy,160,2012-12-01 00:58:00
5:58 PM,42.8,42.8,100,29.63,10.0,SSE,6.9,-,N/A,,Partly Cloudy,150,2012-12-01 01:58:00
6:03 PM,42.8,42.8,100,29.60,10.0,SSE,5.8,-,N/A,,Scattered Clouds,160,2012-12-01 02:03:00
6:22 PM,44.6,44.6,100,29.60,10.0,SSE,6.9,-,N/A,,Overcast,150,2012-12-01 02:22:00
6:58 PM,43.5,43.5,100,29.63,10.0,South,6.9,-,0.00,,Overcast,180,2012-12-01 02:58:00
7:18 PM,42.8,42.8,100,29.60,10.0,South,8.1,-,N/A,Rain,Light Rain,170,2012-12-01 03:18:00
7:50 PM,44.6,44.6,100,29.59,10.0,SSE,6.9,-,N/A,,Overcast,160,2012-12-01 03:50:00
7:52 PM,44.6,44.6,100,29.59,10.0,SSE,6.9,-,N/A,Rain,Light Rain,150,2012-12-01 03:52:00
7:58 PM,44.2,44.2,100,29.62,10.0,SE,5.8,-,0.00,Rain,Light Rain,130,2012-12-01 03:58:00
8:01 PM,44.6,44.6,100,29.59,10.0,SE,5.8,-,N/A,,Overcast,140,2012-12-01 04:01:00
8:58 PM,43.5,43.3,99,29.61,10.0,ESE,6.9,-,0.00,,Mostly Cloudy,110,2012-12-01 04:58:00
9:58 PM,44.1,44.1,100,29.60,10.0,South,4.6,-,N/A,,Overcast,170,2012-12-01 05:58:00
10:31 PM,42.8,42.8,100,29.58,10.0,South,6.9,-,N/A,Rain,Light Rain,180,2012-12-01 06:31:00
10:45 PM,44.6,44.6,100,29.59,9.0,South,15.0,-,N/A,Rain,Light Rain,180,2012-12-01 06:45:00
10:58 PM,44.1,44.1,100,29.59,10.0,South,20.7,-,0.02,Rain,Light Rain,170,2012-12-01 06:58:00
11:13 PM,44.6,44.6,100,29.59,9.0,South,16.1,-,N/A,Rain,Heavy Rain,190,2012-12-01 07:13:00
11:48 PM,42.8,42.8,100,29.57,10.0,SSE,10.4,-,N/A,Rain,Light Rain,150,2012-12-01 07:48:00
11:49 PM,42.8,42.8,100,29.58,10.0,SE,10.4,-,N/A,,Overcast,140,2012-12-01 07:49:00
11:58 PM,43.2,43.2,100,29.60,10.0,SSE,10.4,-,0.08,,Mostly Cloudy,150,2012-12-01 07:58:00